Home > Time Zones > World Clock > Weather > China > Sian > Past weeks

Flag for China Weather past 2 weeks in Sian, Shaanxi, China

Now
66 °F

Clear.


Feels Like: 66 °F
Forecast: 55 / 80 °F
Wind: 3 mph from Northeast

Location: Xian/Xianyang

Current Time: Oct 2, 2014 at 7:21:11 PM

Latest Report: Oct 2, 2014 at 7:00 PM


Visibility: 4 mi

Pressure: 29.86 "Hg

Humidity: 78%

Dew point: 59 °F

Location of SianLocation

Historic Weather in Sian — Graph

°F

Sian temperature yesterday

Maximum temperature yesterday: 73 °F (at 3:00 PM)
Minimum temperature yesterday: 59 °F (at 4:00 AM)
Average temperature yesterday: 64 °F

Past Weeks' High & Low Weather Summary

 TemperatureHumidityPressure
High84 °F (Sep 30, 2:00 PM)100% (Sep 17, 11:00 PM)30.18 "Hg (Sep 17, 11:00 PM)
Low54 °F (Sep 20, 5:00 AM)39% (Oct 2, 4:00 PM)29.80 "Hg (Sep 20, 4:00 PM)
Average66 °F83%30.00 "Hg
* Reported Sep 17 6:00 PM — Oct 2 6:00 PM, Sian, Weather by CustomWeather, © 2014

Note: Actual official high and low records may vary slightly from our data, if they occured in-between our weather recording intervals... More about our weather records

Advertising

Sian weather history for previous 24 hours

 ConditionsComfort  
Time TempWeatherWind HumidityBarometerVisibility
6:00 PM
Oct 2
77 °FClear.3 mph47%29.86 "Hg5 mi
5:00 PM79 °FClear.3 mph45%29.86 "Hg5 mi
4:00 PM81 °FClear.1 mph39%29.89 "Hg5 mi
3:00 PM81 °FClear.1 mph42%29.92 "Hg5 mi
2:00 PM79 °FSunny.1 mph45%29.92 "Hg10 mi
1:00 PM77 °FSunny.1 mph51%29.98 "Hg10 mi
12:00 PM73 °FHaze.3 mph61%30.01 "Hg3 mi
11:00 AM63 °FFog.1 mph100%30.04 "Hg1 mi
10:00 AM59 °FFog.1 mph100%30.07 "Hg1 mi
9:00 AM59 °FFog.1 mph94%30.07 "Hg0 mi
8:00 AM59 °FFog.1 mph94%30.04 "Hg0 mi
7:00 AM57 °FFog.3 mph100%30.04 "Hg0 mi
6:00 AM57 °FFog.1 mph100%30.01 "Hg0 mi
5:00 AM55 °FFog.1 mph100%30.01 "Hg0 mi
4:00 AM55 °FFog.1 mph100%30.01 "Hg0 mi
3:00 AM57 °FFog.No wind100%30.01 "Hg0 mi
2:00 AM55 °FFog.1 mph100%30.01 "Hg1 mi
1:00 AM59 °FFog.3 mph94%30.01 "Hg1 mi
12:00 AM59 °FFog.1 mph94%30.04 "Hg1 mi
11:00 PM
Oct 1
59 °FFog.No wind94%30.04 "Hg1 mi
10:00 PM61 °FFog.No wind94%30.04 "Hg1 mi
9:00 PM63 °FFog.3 mph94%30.04 "Hg2 mi
8:00 PM64 °FFog.3 mph94%30.01 "Hg3 mi
7:00 PM68 °FFog.1 mph83%29.98 "Hg3 mi
Weather by CustomWeather, © 2014

See weather overviewHow to use our weather pages